Regional Weather Roundup
Issued by NWS Newport/Morehead, NC

Current Version | Previous Version | Graphics & Text | Print | Product List | Glossary On
Versions: 1 2 3 4 5 6 7 8 9 10 11 12 13 14 15 16 17 18 19 20 21 22 23 24 25 26 27 28 29 30 31 32 33 34 35 36 37 38 39 40 41 42 43 44 45 46 47 48 49 50
221 ASUS42 KMHX 052312 RWRMHX WEATHER ROUNDUP FOR EASTERN NORTH CAROLINA NATIONAL WEATHER SERVICE NEWPORT/MOREHEAD CITY NC 600 PM EST MON DEC 05 2016 NOTE: "FAIR" INDICATES FEW OR NO CLOUDS BELOW 12,000 FEET WITH NO SIGNIFICANT WEATHER AND/OR OBSTRUCTIONS TO VISIBILITY NCZ015>017-031-032-045>047-102-103-060000- NORTH COAST CITY SKY/WX TMP DP RH WIND PRES REMARKS EDENTON PTCLDY 51 42 71 CALM 30.04R ELIZABETH CITY PTCLDY 49 41 74 N10 30.03R KITTY HAWK CLEAR 50 46 87 N10 30.01S MANTEO CLEAR 49 45 84 NE9 30.03R $$ NCZ045>047-081-094-103-104-060000- CENTRAL COAST CITY SKY/WX TMP DP RH WIND PRES REMARKS FRISCO CLOUDY 52 47 83 N10G16 30.02R $$ NCZ095-097-098-100-101-060000- SOUTHERN COAST CITY SKY/WX TMP DP RH WIND PRES REMARKS BEAUFORT CLEAR 54 49 83 VRB6 30.03R CEDAR ISLAND NOT AVBL JACKSONVILLE NOT AVBL PINEY ISLAND CLEAR N/A N/A N/A NE15 30.02R WILMINGTON CLEAR 54 51 90 NE8 30.00S $$ NCZ011>013-027>030-043-044-078>080-089-090>093-098-060000- COASTAL PLAIN CITY SKY/WX TMP DP RH WIND PRES REMARKS AHOSKIE CLOUDY 46 43 88 N3 30.04S CLINTON PTCLDY 54 49 83 CALM 30.02R ELIZABETHTOWN MOCLDY 55 49 78 CALM 30.00R GOLDSBORO CLOUDY 53 49 87 NE6 30.01R GREENVILLE CLOUDY 52 46 82 NE5 30.05R HAVELOCK CLEAR 54 47 77 NE5 30.04R KENANSVILLE CLOUDY 50 46 87 CALM 30.01R KINSTON PTCLDY 50 46 87 CALM 30.04R NEW BERN CLEAR 53 47 79 E3 30.04R RICHLANDS CLEAR 50 47 89 CALM 30.02R ROCKY MOUNT MOCLDY 52 45 77 NE5 30.04R WASHINGTON PTCLDY 50 45 83 NE3 30.03R WHITEVILLE NOT AVBL $$ AMZ130-135-150-152-154-156-158-170-250-252-270-ANZ085-086-088-633-658-670-060000- MARINE OBSERVATIONS STATION/POSITION TIME TEMP WIND PRES WAVE SWELL AIR SEA DIR/SP/G HT/PER HT/PER (UTC) (F) (DEG/KT/KT) (MB) (FT/S) (FT/S) CHESAPEAKE LIGHT NOT AVBL 64 E VA BEACH 2250 53 60 10/ 19/ 25 1015.4 6/ 5 2/ 8 DUCK 2248 52 54 10/ 14/ 19 1015.7 2 E DUCK NOT AVBL OREGON INLET 2248 10/ 11/ 16 N/A 13E OREGON INLT NOT AVBL HATTERAS CG 2248 53 60 20/ 17/ 21 1016.2 DIAMOND BUOY 2250 57 71 20/ 19/ 23 1016.1 5/ 8 3/ 8 CAPE LOOKOUT 2300 56 30/ 15/ 16 1016.4 BEAUFORT LAB 2248 54 56 40/ 4/ 7 1015.6 30 SE NEW RVR IN 2208 57 70 50/ 16/ 21 1014.7 30 SE NEW RVR IN NOT AVBL 27 SE WRIGHTSVLE 2208 60 66 60/ 14/ 19 1015.0 5 SE WRIGHTSVLE 2208 56 62 50/ 8/ 14 1015.1 225 S CAPE HAT 2250 73 74 200/ 16/ 19 1015.1 6/ 7 2/11 41 SE CHARLESTON 2250 65 73 40/ 14/ 16 1013.6 4/ 7 2/ 7 $$

USA.gov is the U.S. government's official web portal to all federal, state and local government web resources and services.